Weather in Novaya Chigla

Russia / Voronezh Oblast     51°13′28″N   40°28′30″E
temp.,
°C
wind,
m/s
gust,
m/s
humid.,
%
clouds,
%
prec.,
mm/h
press.,
hPa
HPBL,
m
20 june, sun
sun2000:00+15e36860 0.0 102482
03:00+14e35900 0.0 102482
06:00+16e37840 0.0 1023166
09:00+21e57620 0.0 1023518
12:00+25e575128 0.0 10221077
15:00+26e5648100 0.0 10211245
18:00+25e4765100 0.0 1020310
21:00+20ene41075100 0.0 1020157
21 june, mon
mon2100:00+18e41279100 0.0 1020186
03:00+17e41274100 0.0 1020216
06:00+18e41275100 0.0 1020271
09:00+23ese5763100 0.0 1020350
12:00+28ese464989 0.0 1020839
15:00+28ese575375 0.0 1020875
18:00+27e48635 0.0 1019377
21:00+22ene49780 0.0 1019140
22 june, tue
tue2200:00+20e412830 0.0 1020191
03:00+18e411810 0.0 1020182
06:00+20e411785 0.0 1020224
09:00+26e696293 0.0 1020430
12:00+29e6852100 0.0 1020898
15:00+31ese67508 0.0 10191396
18:00+28e596296 0.0 1019413
21:00+23ene410762 0.0 1019165
23 june, wed
wed2300:00+21e411713 0.0 1019182
03:00+21ene412738 0.0 1019203
06:00+21ene5117751 0.0 1019234
09:00+27e585783 0.0 1020446
12:00+30ese564680 0.0 1020881
15:00+32e564367 0.0 10201148
18:00+29e3764100 0.0 1019233
21:00+25e4672100 0.0 102084
24 june, thu
thu2400:00+23e3575100 0.0 102074
03:00+21ene367371 0.0 102072
06:00+21ene487496 0.0 1020148
09:00+27e58586 0.0 1020385
12:00+31e564636 0.0 1020877
15:00+32e4441100 0.0 10191429
18:00+30ene3661100 0.0 1018166
21:00+25ene3465100 0.0 101856